Find OneWeb SL0352

NORAD ID: 49216 Int'l Des: 2021-083 Owner: ONEWEBN Country: UK Constellation: oneweb operational
LEOCIRCULARPOLARONEWEB_TYPE

Live Position

Loading 3D Globe...

About OneWeb SL0352

Description loading...

Upcoming Passes

Passes for default location (London). Set your location on the main map for personalized predictions.

Altitude History

Loading altitude history...

Two-Line Element Set

1 49216U 21083AG 26106.85443714 .00000221 00000-0 57098-3 0 9994
2 49216 87.8983 332.4491 0001935 72.4782 287.6558 13.13469529222977
Epoch: Apr 16, 2026 • Age: 5 hours

Current Status

Altitude 1218.7 km
Velocity 7.24 km/s
Sub-Earth Point -23.58°S, 98.19°E
Launch Date Sep 14, 2021
Age 4.5 years
Type internet

Technical Details

Classification Payload
Mass 148.00 kg
Dry Mass 140.00 kg
Total Mass 148.00 kg
Length 1.30 m
Diameter 1.00 m
Span 5.00 m
Shape Trapezoid+2 pan
Manufacturer ONEWUS
Bus Type ARROW
Phase Status In Orbit
Owner/State ONEWEBN/UK

Most Searched